FENGYUN 1C DEB, 31057

Orbit data source: Space-Track

FENGYUN 1C DEB, 31057 is space debris in SSO originally from a launch on Mon, 10 May 1999 UTC launched from the Taiyaun Space Center, China (TSC). Fengyun 1C debris stems from the Chinese weather satellite Fengyun-1C, which was intentionally destroyed by a Chinese anti-satellite missile in 2007. This event dramatically increased the amount of space debris, with thousands of trackable fragments posing hazards to satellites and human spaceflight. The Fengyun 1C debris cloud has become a focal point in discussions about space sustainability and the need for international regulations to prevent the creation of new debris.

Loading next visibility...
Identifier
31057, 1999-025BFB
Orbit
SSO
Country
Flag of CNCN / PRC
Related business
Manufacturer
Unknown
Mission
Spacecraft
Bus & Motor
Unknown
Mass
Unknown
Launch date (UTC)
1999-05-10 (27 years ago)
Launch vehicle
Unknown
Launch site
Taiyaun Space Center, China (TSC)
Object type
Payload
Rocket body
Debris
Shape & HBR
Unknown shape, 0.1 m
Radar Cross Section
Small (<0.1 m²)

Expand to show TLE details & history
Last TLE update: 6 days ago

TLE from 6 days ago
0 FENGYUN 1C DEB
1 31057U 99025BFB 25306.84918520  .00007197  00000-0  84428-3 0  9997
2 31057  99.2637 340.2792 0140654  16.6474 343.9282 14.78441132613634
Epoch: 2025-11-02T20:22Z
TLE epoch observation values (Epoch: 2025-11-02T20:22:49.601Z)
Latitude
0.00005°
Longitude
-7.78649°
Altitude
542.536 km
Speed
7.642 km/s
True Right ascension
22h 41m 07s
True Declination
0° 00' 00"
Sunlit
Object was in full shadow at epoch
Visualization orbit readout
Latitude
Unknown
Longitude
Unknown
Altitude
Unknown
Speed
Unknown
Apparent Right ascension
Unknown
Apparent Declination
Unknown
Sunlit
N/A
Visualization observer readout
Local Sidereal Time
01:25:59
Azimuth
Unknown
Elevation
Unknown
Doppler factor
Unknown
Orbital elements
Apogee altitude
729.949 km
Perigee altitude
532.766 km
Semi-major axis
7,009.494 km
Eccentricity
0.01407
Inclination
99.2637°
RAAN
340.2792°
Arg. of periapsis
16.6474°
True anomaly
343.47434°
Mean anomaly
343.9282°
Eccentric anomaly
343.70204°
Mean motion
3.69839 °/min
Orbital period
97.34 mins
BSTAR
0.00084428
Loading maneuver chart data...
Computing Atmospheric mass density...

Documentation

Showing up to 5 results
|